This demonstration page uses our WeatherBlox Daily Observations layout. Learn more.

39.92423, -83.80882

Hourly Observations for July 7, 2020

Temp ( °F °C ) Dew Point ( °F °C ) Humidity (%) Winds ( mph kmh ) Pressure ( in mb ) Visibility ( mi km ) Precip ( " mm )
12:56 am 00:56 Mostly Clear 74 23.3 74 23.3 100 100 Calm 30.01 1016 8 12.87472 0.01 0.254
1:56 am 01:56 Cloudy 73 22.8 73 22.8 100 100 Calm 30 1016 7 11.26538 0.02 0.508
2:56 am 02:56 Partly Cloudy 73 22.8 73 22.8 100 100 Calm 30.01 1016 8 12.87472 0 0
3:56 am 03:56 Clear 73 22.8 73 22.8 100 100 Calm 30 1016 8 12.87472 0.01 0.254
4:56 am 04:56 Mostly Clear 72 22.2 72 22.2 100 100 Calm 30.01 1016 7 11.26538 0.01 0.254
5:56 am 05:56 Mostly Clear 72 22.2 72 22.2 100 100 Calm 30.01 1016 7 11.26538 0 0
6:56 am 06:56 Sunny with Mist and Fog 71 21.7 71 21.7 100 100 Calm 30 1016 6 9.65604 0.01 0.254
7:56 am 07:56 Sunny 74 23.3 73 22.8 97 97 Calm 30.01 1016 8 12.87472 0 0
8:56 am 08:56 Sunny 78 25.6 73 22.8 85 85 SSE 5 7 30.02 1017 10 16.0934 0.02 0.508
9:56 am 09:56 Sunny 81 27.2 72 22.2 74 74 Calm 30.03 1017 10 16.0934 0.02 0.508
10:56 am 10:56 Sunny 84 28.9 72 22.2 67 67 SSW 3 6 30.03 1017 10 16.0934 0 0
11:56 am 11:56 Mostly Sunny 85 29.4 73 22.8 68 68 W 3 6 30.03 1017 10 16.0934 0 0
12:56 pm 12:56 Sunny 87 30.6 72 22.2 61 61 S 7 11 30.02 1017 10 16.0934 0 0
1:56 pm 13:56 Sunny 88 31.1 72 22.2 59 59 SSW 6 9 29.99 1016 10 16.0934 0 0
2:56 pm 14:56 Partly Cloudy 89 31.7 71 21.7 55 55 VRB 5 7 29.96 1015 10 16.0934 0 0
3:17 pm 15:17 Partly Cloudy with Nearby Thunderstorms 88 31 72 22 59 59 WNW 9 15 29.93 1014 10 16.0934 0 0
3:56 pm 15:56 Cloudy with Nearby Thunderstorms 75 23.9 69 20.6 82 82 WNW 20 31 29.99 1016 10 16.0934 0 0
4:56 pm 16:56 Mostly Cloudy with Light Rain 75 23.9 70 21.1 84 84 SW 6 9 29.97 1015 10 16.0934 0.001 0.001
5:56 pm 17:56 Partly Cloudy 80 26.7 71 21.7 74 74 WSW 3 6 29.94 1014 10 16.0934 0 0
6:56 pm 18:56 Sunny 82 27.8 70 21.1 67 67 Calm 29.98 1015 10 16.0934 0.01 0.254
7:56 pm 19:56 Sunny 78 25.6 73 22.8 85 85 ESE 13 20 29.98 1015 10 16.0934 0 0
8:56 pm 20:56 Sunny 74 23.3 72 22.2 94 94 SE 9 15 29.98 1015 10 16.0934 0 0
9:56 pm 21:56 Clear 73 22.8 72 22.2 96 96 SE 6 9 29.97 1015 10 16.0934 0 0
10:56 pm 22:56 Clear 71 21.7 71 21.7 100 100 Calm 29.98 1015 10 16.0934 0 0
11:56 pm 23:56 Clear 71 21.7 71 21.7 100 100 Calm 30 1016 10 16.0934 0 0

Powered by AerisWeather